Regional Weather Roundup
Issued by NWS Sterling, VA

Home | Current Version | Previous Version | Graphics & Text | Print | Product List | Glossary On
Versions: 1 2 3 4 5 6 7 8 9 10 11 12 13 14 15 16 17 18 19 20 21 22 23 24 25 26 27
000
ASUS41 KLWX 192110
RWRLWX

REGIONAL WEATHER ROUNDUP
NATIONAL WEATHER SERVICE BALTIMORE MD/WASHINGTON DC
500 PM EDT SAT APR 19 2014

Note: "FAIR" indicates few or no clouds below 12,000 feet
with no significant weather and/or obstructions to visibility.
 TC=TEMPERATURE CELSIUS

 * =Non NWS site. Station does not report precipitation (e.g. rain,
    snow, etc.), thunder, or fog.

DCZ001-MDZ009-015-VAZ040>042-051-053>054-192200-
WASHINGTON METRO

CITY           SKY/WX    TMP DP  RH WIND       PRES   REMARKS
WASHINGTON NAT CLOUDY    70  32  24 NE10      30.22S
DULLES         CLOUDY    66  33  29 NE10      30.23S
ANDREWS AFB    CLOUDY    65  38  36 E9        30.22S
FT BELVOIR     CLOUDY    70  29  21 VRB7      30.22S
QUANTICO       CLOUDY    68  38  33 NE5       30.23S
COLLEGE PARK*  CLOUDY    70  28  21 N10G16    30.22R
LEESBURG*      PTSUNNY   68  37  32 NE9       30.24R
MANASSAS*      PTSUNNY   70  36  28 N9        30.22R
GAITHERSBURG*  MOSUNNY   66  30  26 N9        30.26R

$$

MDZ006>007-011-014-192200-
BALTIMORE METRO

CITY           SKY/WX    TMP DP  RH WIND       PRES   REMARKS
BWI AIRPORT    CLOUDY    66  33  29 E13       30.22S
MD SCIENCE CTR   N/A     68  30  24 MISG      30.23S
MARTIN STATE   PTSUNNY   70  28  21 N5        30.24S
ANNAPOLIS      CLOUDY    64  31  28 E10       30.23S
FORT MEADE*    PTSUNNY   68  32  26 NE6       30.25R

$$

MDZ012-015-019>023-192200-
MARYLAND EASTERN SHORE

CITY           SKY/WX    TMP DP  RH WIND       PRES   REMARKS
OCEAN CITY     CLOUDY    55  34  45 E9        30.25S
SALISBURY      CLOUDY    63  41  44 SE8       30.23S
BAY BRIDGE AP* CLOUDY    63  36  36 N6        30.23S
CAMBRIDGE*     CLOUDY    66  36  32 N5        30.22R
EASTON*        CLOUDY    68  39  34 NE5       30.25F

$$

MDZ017>025-192200-
SOUTHERN MARYLAND

CITY           SKY/WX    TMP DP  RH WIND       PRES   REMARKS
PATUXENT RIVER CLOUDY    63  39  41 N8        30.22F
ST INIGOES     CLOUDY    64  42  44 VRB3      30.22S
LEONARDTOWN*   CLOUDY    63  37  39 CALM      30.24S

$$

MDZ003>005-192200-
NORTH CENTRAL MARYLAND

CITY           SKY/WX    TMP DP  RH WIND       PRES   REMARKS
FREDERICK*     SUNNY     66  37  34 NE7       30.26S
HAGERSTOWN APT PTSUNNY   65  23  20 N9        30.24S
WESTMINSTER*   MOSUNNY   63  16  16 N10       30.26R

$$

MDZ501>502-192200-
WESTERN MARYLAND

CITY           SKY/WX    TMP DP  RH WIND       PRES   REMARKS
OAKLAND*       CLOUDY    57   1  10 N5        30.25S
CUMBERLAND*    CLOUDY    70  25  18 N6        30.26S

$$

VAZ025>031-192200-
SHENANDOAH VALLEY

CITY           SKY/WX    TMP DP  RH WIND       PRES   REMARKS
WINCHESTER*    PTSUNNY   64  32  29 NE6       30.23R
STAUNTON*      CLOUDY    63  38  39 NE7       30.24R

$$

WVZ021-048>050-054>055-192200-
EASTERN WEST VIRGINIA PANHANDLE

CITY           SKY/WX    TMP DP  RH WIND       PRES   REMARKS
MARTINSBURG    PTSUNNY   68  28  22 E12       30.24S
PETERSBURG*    CLOUDY    71  42  35 CALM      30.23S

$$

VAZ036>039-050-192200-
CENTRAL FOOTHILLS

CITY           SKY/WX    TMP DP  RH WIND       PRES   REMARKS
CHARLOTTESVILL CLOUDY    65  38  36 E8        30.22R
CULPEPER*      CLOUDY    70  32  24 NE6       30.23R

$$

VAZ055>057-192200-
NORTH AND CENTRAL PIEDMONT

CITY           SKY/WX    TMP DP  RH WIND       PRES   REMARKS
FREDERICKSBRG* CLOUDY    68  37  32 E7        30.21R
STAFFORD*      CLOUDY    67  38  34 CALM      30.26R

$$

NCZ024-NYZ072-PAZ021-071-VAZ022-071-192200-
OTHER REGIONAL OBSERVATIONS

CITY           SKY/WX    TMP DP  RH WIND       PRES   REMARKS
NEW YORK CITY  MOSUNNY   67  22  18 NE9       30.25S
PHILADELPHIA   CLOUDY    66  20  17 N12       30.24S
PITTSBURGH     PTSUNNY   64  18  17 N9G21     30.27F
ROANOKE        CLOUDY    62  40  44 SE10      30.22S
RICHMOND       CLOUDY    65  38  36 NE12G21   30.22R
RALEIGH        CLOUDY    52  46  80 NE9       30.17F

$$

ANZ530>537-192200-
MARINE OBSERVATIONS

STATION/POSITION TIME  TEMP    WIND        PRES
                       AIR SEA DIR/SP/G
                 (UTC) (F)     (DEG/KT/KT) (MB)
THOMAS PT LIGHT  2100   59 54   CALM  /  3 1024.1S
BALT KEY BRIDGE  2100   62     120/  7/  8 1023.5F
COVE POINT       2100   56     330/  6/  7 1023.4S
LEWISETTA        2100   60 54  350/  3/  5 1023.3S
SOLOMONS ISLAND  2100      53                N/A
PINEY POINT      2100          140/  6/  6   N/A

$$




USA.gov is the U.S. government's official web portal to all federal, state and local government web resources and services.